Showing default

NUSAT-32 (ALBANIA-1), 55064

Orbit data source: Space-Track

NUSAT-32 (ALBANIA-1), 55064 is a payload satellite owned by URUGUS S.A. (AR) in SSO that was launched on Tue, 03 Jan 2023 UTC via an FALCON 9 launch vehicle from the Air Force Eastern Test Range (AFETR). Payload-class satellites include a variety of spacecraft equipped with specific instruments for various scientific and technological missions. These include communications satellites like Starlink; space stations such as the ISS; scientific satellites like the Hubble; Earth observation satellites from companies like Planet Labs, Umbra, and HawkEye 360; GPS; miniature CubeSats for education and research; and military/defense satellites.

Not visible in the next 10 days
Identifier
55064, 2023-001BH
Orbit
SSO
Country
Flag of UnknownUnknown / ARGN
Related business
Manufacturer
URUGUS S.A.
Mission
Operational Commercial Imaging
Bus & Motor
NEWSAT V, Unknown motor
Mass
41.5 kg wet, 38.5 kg dry
Launch date (UTC)
2023-01-03 (3 years ago)
Launch vehicle
FALCON 9
Launch site
Air Force Eastern Test Range (AFETR)
Object type
Payload
Rocket body
Debris
Shape & HBR
Box, 1.0 m
Radar Cross Section
0.542 m², Medium (>0.1 m² and < 1m²)

Expand to show TLE details & history
Last TLE update: 11 hours ago

TLE from 11 hours ago
0 NUSAT-32 (ALBANIA-1)
1 55064U 23001BH  26014.24284181  .00338624  47411-4  84938-3 0  9991
2 55064  97.1898  85.2317 0003820 241.2536 118.8357 15.95677406170210
Epoch: 2026-01-14T05:49Z
TLE epoch observation values (Epoch: 2026-01-14T05:49:41.532Z)
Latitude
-0.00001°
Longitude
-115.90498°
Altitude
290.855 km
Speed
7.732 km/s
True Right ascension
05h 40m 55s
True Declination
0° 00' 00"
Sunlit
Object was in full shadow at epoch
Visualization orbit readout
Latitude
Unknown
Longitude
Unknown
Altitude
Unknown
Speed
Unknown
Apparent Right ascension
Unknown
Apparent Declination
Unknown
Sunlit
N/A
Visualization observer readout
Local Sidereal Time
17:04:54
Azimuth
Unknown
Elevation
Unknown
Doppler factor
Unknown
Orbital elements
Apogee altitude
285.829 km
Perigee altitude
280.739 km
Semi-major axis
6,661.421 km
Eccentricity
0.00038
Inclination
97.1898°
RAAN
85.2317°
Arg. of periapsis
241.2536°
True anomaly
118.87404°
Mean anomaly
118.8357°
Eccentric anomaly
118.85487°
Mean motion
3.99202 °/min
Orbital period
90.18 mins
BSTAR
0.00084938
Loading maneuver chart data...
Computing Atmospheric mass density...
Loading historical data...
Loading historical data...
Loading historical data...
Loading historical data...
Loading historical data...
Loading historical data...
Loading historical data...

Documentation

Showing up to 5 results
|